Flag for Finland Weather past 2 weeks in Kemi, Finland

Now
57 °F

Sprinkles. Partly sunny.


Feels Like: 57 °F
Forecast: 51 / 57 °F
Wind: 2 mph from Southeast

Location: Kemi Airport

Current Time: Sep 5, 2015 at 4:27:57 PM

Latest Report: Sep 5, 2015 at 3:50 PM


Visibility: 5 mi

Pressure: 29.59 "Hg

Humidity: 94%

Dew point: 55 °F

Location of KemiLocation

Historic Weather in Kemi — Graph

°F

Kemi temperature yesterday

Maximum temperature yesterday: 61 °F (at 10:50 AM)
Minimum temperature yesterday: 54 °F (at 12:20 AM)
Average temperature yesterday: 57 °F

Past Weeks' High & Low Weather Summary

 TemperatureHumidityPressure
High73 °F (Aug 26, 4:50 PM)100% (Aug 21, 9:50 PM)30.30 "Hg (Aug 21, 9:50 PM)
Low32 °F (Sep 3, 1:50 AM)47% (Aug 26, 4:50 PM)29.47 "Hg (Aug 28, 11:20 PM)
Average56 °F87%29.93 "Hg
* Reported Aug 21 2:20 PM — Sep 5 2:50 PM, Kemi, Weather by CustomWeather, © 2015

Note: Actual official high and low records may vary slightly from our data, if they occured in-between our weather recording intervals... More about our weather records

Advertising

Kemi weather history for previous 24 hours

 ConditionsComfort  
Time TempWeatherWind HumidityBarometerVisibility
2:50 PM
Sat, Sep 5
54 °FRain showers. Partly sunny.2 mph94%29.59 "HgN/A
2:20 PM54 °FSprinkles. Partly sunny.2 mph94%29.59 "HgN/A
1:50 PM54 °FRain showers. Overcast.3 mph94%29.59 "HgN/A
1:20 PM54 °FRain. Overcast.8 mph94%29.59 "Hg4 mi
12:50 PM57 °FPartly sunny.10 mph82%29.59 "HgN/A
12:20 PM57 °FPartly sunny.10 mph88%29.59 "HgN/A
11:50 AM57 °FPartly sunny.12 mph88%29.59 "HgN/A
11:20 AM57 °FBroken clouds.12 mph88%29.59 "HgN/A
10:50 AM57 °FScattered clouds.13 mph88%29.56 "HgN/A
10:20 AM57 °FScattered clouds.12 mph88%29.56 "HgN/A
9:50 AM57 °FSunny.10 mph88%29.56 "Hg10 mi
9:20 AM55 °FPassing clouds.6 mph100%29.56 "HgN/A
8:50 AM55 °FLight rain. Partly sunny.5 mph94%29.56 "HgN/A
8:20 AM54 °FBroken clouds.6 mph100%29.56 "HgN/A
7:50 AM52 °FBroken clouds.1 mph100%29.56 "HgN/A
7:29 AM52 °FPartly sunny.1 mph100%29.56 "HgN/A
6:50 AM52 °FPassing clouds.5 mph100%29.56 "HgN/A
6:20 AM52 °FPassing clouds.7 mph100%29.53 "HgN/A
5:50 AM52 °FPartly cloudy.7 mph100%29.53 "HgN/A
5:20 AM52 °FPassing clouds.7 mph100%29.56 "HgN/A
4:50 AM52 °FPassing clouds.7 mph100%29.56 "HgN/A
4:20 AM52 °FPassing clouds.7 mph100%29.56 "HgN/A
3:50 AM52 °FSprinkles. Partly cloudy.5 mph100%29.56 "HgN/A
3:20 AM54 °FOvercast.3 mph94%29.56 "HgN/A
2:50 AM54 °FPartly cloudy.6 mph100%29.56 "HgN/A
2:20 AM54 °FRain showers. Overcast.6 mph100%29.56 "HgN/A
1:50 AM54 °FSprinkles. Overcast.3 mph100%29.56 "HgN/A
1:20 AM52 °FLots of rain. Overcast.2 mph100%29.56 "HgN/A
12:50 AM54 °FSprinkles. Overcast.5 mph94%29.56 "HgN/A
12:20 AM54 °FLow clouds.2 mph94%29.59 "HgN/A
11:50 PM
Fri, Sep 4
54 °FRain. Overcast.1 mph100%29.59 "Hg4 mi
11:20 PM55 °FRain. Mostly cloudy.2 mph94%29.59 "Hg4 mi
10:50 PM57 °FSprinkles. Passing clouds.8 mph88%29.59 "HgN/A
10:20 PM57 °FSprinkles. Overcast.7 mph88%29.59 "HgN/A
9:50 PM57 °FLight rain. Partly cloudy.6 mph82%29.59 "HgN/A
9:20 PM57 °FPartly sunny.6 mph82%29.59 "HgN/A
8:50 PM57 °FPartly sunny.7 mph77%29.62 "HgN/A
8:20 PM57 °FSunny.8 mph77%29.62 "Hg10 mi
7:50 PM57 °FPartly sunny.9 mph72%29.62 "HgN/A
7:20 PM57 °FPartly sunny.8 mph72%29.62 "HgN/A
6:50 PM57 °FPartly sunny.10 mph77%29.62 "HgN/A
6:20 PM59 °FSunny.9 mph68%29.62 "Hg10 mi
5:50 PM59 °FSunny.12 mph68%29.65 "Hg10 mi
5:20 PM59 °FPassing clouds.13 mph63%29.65 "HgN/A
4:50 PM59 °FSunny.13 mph68%29.65 "Hg10 mi
4:20 PM59 °FScattered clouds.13 mph63%29.65 "HgN/A
Weather by CustomWeather, © 2015

See weather overviewHow to use our weather pages